User: anonymous   Login
Location: Morosaglia
(42.4360°N, 9.3069°E)
Time: 17:29:00
(UTC+00:00)
Language:

UNK - Orbit

View from above orbital plane
View from above orbital plane
View from above satellite
View from above satellite

Ground track
Ground track

The orbit data is extracted from the following two-line orbital elements,

1 27940U 03042B   20227.88147435  .00000056  00000-0  19334-4 0  9999
2 27940  98.1195 357.9694 0013177 222.1873 137.8317 14.65174120902051
Epoch (UTC): 14 August 2020 21:09:19
Eccentricity: 0.0013177
inclination: 98.1195°
perigee height: 667 km
apogee height: 686 km
right ascension of ascending node: 357.9694°
argument of perigee: 222.1873°
revolutions per day: 14.65174120
mean anomaly at epoch: 137.8317°
orbit number at epoch: 90205

The dashed part of the orbit path shows where the satellite is in the earth's shadow,  

DLR